Location: Fremont
(37.5480°N, 121.9880°W)
Time: 03:50:58
(UTC-07:00)

Daily predictions for brighter satellites

Satellite Brightness Start Highest point End
(mag) Time Altitude Azimuth Time Altitude Azimuth Time Altitude Azimuth
Cosmos 1703 Rocket 4.2 00:03:24 10° NNW 00:06:57 52° NW 00:06:57 52° NW
Cosmos 2219 Rocket 3.8 00:09:25 10° NW 00:13:34 22° W 00:14:02 21° WSW
Cosmos 2221 Rocket 4.4 00:13:39 10° NNW 00:17:22 47° WNW 00:17:22 47° WNW
Cosmos 158 Rocket 4.3 00:13:56 10° N 00:18:50 56° NE 00:18:50 56° NE
Cosmos 372 Rocket 4.1 00:19:19 73° NW 00:19:19 73° NW 00:24:26 10° NNE
NOSS 2-3 (D) 4.1 00:21:16 70° NW 00:21:16 70° NW 00:26:40 10° NNE
Cosmos 2074 Rocket 3.8 00:23:23 79° S 00:23:49 87° E 00:30:10 10° N
SL-08 ROCKET BODY 4.3 00:27:38 78° ESE 00:27:50 79° E 00:34:01 10° N
Cosmos 1603 4.2 00:23:44 10° NNW 00:29:15 49° ENE 00:29:34 49° ENE
Meteor 1-26 Rocket 4.3 00:26:05 10° NNW 00:31:36 64° W 00:31:36 64° W
Cosmos 2327 Rocket 4.4 00:32:37 74° SW 00:33:09 81° W 00:39:37 10° N
Cosmos 44 Rocket 3.9 00:39:54 53° WNW 00:40:04 53° WNW 00:45:12 10° NNE
Terra 4.4 00:40:05 10° W 00:40:12 11° W 00:41:09 10° WNW
Lacrosse 4 Rocket 3.1 00:39:52 10° NW 00:42:25 30° WNW 00:42:25 30° WNW
Cosmos 2237 Rocket 4.1 00:41:36 10° WNW 00:45:10 18° W 00:45:10 18° W
ATLAS 2AS CENTAUR R/B 4.5 00:42:35 10° WSW 00:49:18 33° NW 00:56:25 10° NNE
Cosmos 2154 Rocket 3.9 00:53:24 72° ESE 00:53:31 72° E 00:59:48 10° N
H-2A ROCKET BODY 4.0 00:06:43 10° W 00:54:08 55° SSW 00:56:30 49° SSE
CZ-4C R/B 3.6 00:49:56 10° NNW 00:56:47 47° NE 01:00:14 30° ESE
Cosmos 1932 4.3 00:51:16 10° NNW 00:57:43 89° WSW 00:57:54 85° SSE
Meteor 2-3 Rocket 4.3 00:57:54 46° W 00:58:13 47° WNW 01:03:43 10° N
Geosat 4.3 01:00:45 10° NNE 01:04:55 61° NE 01:04:55 61° NE
ATLAS 3B R/B 3.4 00:59:58 10° NW 01:05:43 38° WSW 01:05:43 38° WSW
Cosmos 2251 Rocket 3.9 01:02:26 10° NNW 01:06:50 57° NW 01:06:50 57° NW
Meteor 1-10 Rocket 4.3 01:03:04 10° N 01:08:51 83° WNW 01:08:51 83° WNW
Cosmos 1733 Rocket 4.3 01:12:11 39° NW 01:12:11 39° NW 01:15:22 10° N
H-2A R/B 4.0 01:09:46 10° N 01:12:47 32° NW 01:12:47 32° NW
CZ-4B R/B 4.2 01:18:15 16° NW 01:18:15 16° NW 01:19:04 10° NNW
USA 238 DEB 3.6 01:09:33 10° NW 01:16:34 74° WSW 01:16:52 73° SW
USA 238 3.6 01:09:39 10° NW 01:16:41 75° WSW 01:16:59 74° SW
MOS 1-B Rocket 3.7 01:19:07 85° NE 01:19:07 85° NE 01:24:37 10° NNW
CZ-2C R/B 3.8 01:18:45 48° E 01:19:10 49° ENE 01:24:35 10° N
COSMOS 2455 4.4 01:16:06 10° NW 01:19:37 22° W 01:19:37 22° W
ALOS 2 4.4 01:24:02 24° WNW 01:24:02 24° WNW 01:26:19 10° NW
GEOS 3 Rocket 4.4 01:25:15 41° WNW 01:25:15 41° WNW 01:28:55 10° NW
Cosmos 2263 Rocket 2.6 01:26:08 53° E 01:26:08 53° E 01:31:02 10° NNE
Cosmos 2341 Rocket 3.9 01:26:44 76° WSW 01:27:01 78° W 01:33:25 10° N
SeaSat 1 4.3 01:28:54 20° WNW 01:28:54 20° WNW 01:31:06 10° NW
BREEZE-M DEB (TANK) 3.9 01:23:18 10° NW 01:27:10 33° NNW 01:27:10 33° NNW
Helios 1A Rocket 4.5 01:26:46 10° N 01:29:32 33° NNW 01:29:32 33° NNW
Cosmos 962 Rocket 4.4 01:32:34 71° W 01:32:41 71° W 01:38:48 10° N
Meteor 2-13 Rocket 4.3 01:34:50 80° ESE 01:34:55 80° E 01:41:04 10° N
SL-16 R/B 4.4 01:35:53 10° WNW 01:37:37 14° W 01:37:37 14° W
SL-8 Rocket 3.9 01:39:46 76° SE 01:40:05 78° E 01:46:25 10° N
RESURS DK-1 4.0 01:46:57 31° NE 01:46:57 31° NE 01:49:19 10° NNE
Okean 2 Rocket 3.9 01:49:17 51° NNE 01:49:17 51° NNE 01:52:40 10° N
Cosmos 2218 Rocket 3.9 01:49:46 74° SE 01:50:09 78° E 01:56:30 10° N
NOSS 3-2 (C) 4.1 01:42:47 10° NNW 01:50:21 71° NE 01:53:56 36° SE
CZ-2C R/B 3.0 01:45:46 10° N 01:50:33 51° WNW 01:50:33 51° WNW
Cosmos 1943 3.4 01:56:42 10° NNW 02:01:42 61° WNW 02:01:42 61° WNW
Cosmos 2366 rocket 3.8 02:03:15 78° SSE 02:03:41 86° E 02:09:53 10° N
Meteor 1-27 Rocket 4.3 01:58:11 10° NNW 02:03:20 46° W 02:03:20 46° W
NOSS 3-4 (A) 3.9 02:09:10 46° W 02:10:33 55° NW 02:17:00 10° NNE
NOSS 3-4 (C) 3.9 02:09:16 47° W 02:10:38 56° NW 02:17:06 10° NNE
Cosmos 1975 Rocket 4.2 02:08:54 10° NNW 02:11:45 36° NW 02:11:45 36° NW
NOSS 3-2 (A) 3.9 02:05:41 10° NW 02:13:16 74° WSW 02:15:07 55° S
Meteor 1-14 Rocket 4.2 02:13:05 77° SSE 02:13:29 83° E 02:19:24 10° N
Cosmos 1371 Rocket 4.1 02:22:39 65° WNW 02:22:40 65° WNW 02:28:00 10° NNE
Cosmos 2056 Rocket 3.4 02:23:45 87° NW 02:23:45 87° NW 02:28:59 10° NNE
Cosmos 1536 Rocket 4.0 02:20:46 10° N 02:24:39 57° NE 02:24:39 57° NE
Cosmos 864 Rocket 4.4 02:25:05 63° WSW 02:25:42 67° W 02:31:50 10° N
ATLAS 2A CENTAUR R/B 3.9 02:27:20 32° SE 02:27:20 32° SE 02:39:44 10° ESE
Cosmos 1727 Rocket 3.8 02:22:14 10° N 02:28:28 79° W 02:29:13 68° SSW
Cosmos 407 Rocket 4.2 02:25:42 10° N 02:30:43 49° ENE 02:32:09 38° ESE
NPP 4.1 02:26:47 10° NNE 02:31:59 48° E 02:32:41 46° ESE
Abrixas rocket 4.4 02:36:28 26° N 02:36:28 26° N 02:38:43 10° NE
SL-27 R/B 4.0 02:34:15 10° N 02:37:21 34° ENE 02:37:21 34° ENE
ERS-2 3.7 02:34:41 10° NNE 02:37:23 30° ENE 02:37:23 30° ENE
PSLV R/B 3.9 02:36:07 10° N 02:39:39 56° NNW 02:39:39 56° NNW
Meteor 1-18 Rocket 4.2 02:35:45 10° N 02:41:26 81° E 02:42:32 60° SSE
CZ-4C R/B 3.4 02:38:41 10° NW 02:45:20 39° WSW 02:45:20 39° WSW
Gbstr 26 Del rocket 3.6 02:47:00 47° ENE 02:47:00 47° ENE 02:49:48 10° NE
Cosmos 2151 Rocket 4.3 02:47:49 45° NW 02:47:49 45° NW 02:51:35 10° N
Cosmos 1812 3.3 02:44:04 10° N 02:47:26 54° NE 02:47:26 54° NE
CZ-2D R/B 4.3 02:46:19 10° NE 02:49:52 17° E 02:53:01 11° SE
Okean 1 Rocket 3.2 02:54:39 67° ESE 02:54:46 68° E 02:59:12 10° NNE
Okean 1-7 Rocket 4.2 02:51:14 10° N 02:55:44 53° E 02:56:37 45° ESE
Meteor 1-20 Rocket 4.2 02:55:37 60° SSW 02:56:45 84° W 03:02:35 10° N
SL-08 R/B 3.5 02:56:23 52° SE 02:57:30 72° ENE 03:02:24 10° N
IRAS Rocket 4.1 02:52:22 10° NNE 02:57:56 87° ESE 02:59:03 59° SSW
NOSS 2-2 (E) 4.0 02:58:33 48° ESE 02:58:33 48° ESE 03:02:56 10° NE
Iridium 4 Rocket 3.7 02:58:17 10° NNW 03:02:54 48° W 03:02:57 48° W
Meteor 1-11 Rocket 4.3 03:03:18 34° SSE 03:05:38 54° E 03:11:27 10° NNE
Cosmos 724 4.4 02:59:35 10° NNW 03:05:45 81° ENE 03:10:12 20° SSE
Cosmos 1844 Rocket 2.6 03:04:58 57° SSW 03:06:12 85° ESE 03:11:54 10° NNE
Cosmos 1954 Rocket 4.4 03:01:17 10° N 03:06:24 59° ENE 03:09:06 27° SE
IRS-1C 4.2 03:03:14 10° NNE 03:08:35 73° ESE 03:10:00 49° S
CBERS 1 LM4 rocket 4.5 03:04:13 10° NNE 03:09:05 66° ESE 03:10:03 52° SSE
Cosmos 1000 Rocket 4.3 03:03:23 10° N 03:09:32 85° W 03:11:43 43° S
Cosmos 2263 Rocket 3.9 03:07:49 17° W 03:09:46 20° NW 03:13:56 10° N
Okean 1 3.3 03:07:06 10° N 03:10:48 72° NW 03:10:48 72° NW
AQUA 3.7 03:10:15 10° N 03:15:00 78° WNW 03:15:44 62° SW
Cosmos 1844 3.7 03:15:58 48° S 03:17:38 78° ESE 03:23:23 10° NNE
Cosmos 1025 Rocket 4.0 03:14:55 10° N 03:19:01 42° E 03:21:05 25° SE
USA 234 3.2 03:13:07 10° SE 03:19:38 90° SSE 03:26:13 10° NW
GP-B 3.0 03:15:13 10° N 03:19:39 69° W 03:20:02 65° WSW
Meteor 2-14 Rocket 4.4 03:21:46 36° S 03:24:22 79° E 03:30:27 10° N
SL-16 R/B 3.5 03:19:32 10° SE 03:25:27 47° ENE 03:31:21 10° N
Yuri Rocket 4.4 03:26:41 34° S 03:26:41 34° S 03:30:54 10° ESE
Cosmos 1605 Rocket 4.1 03:25:28 30° S 03:28:41 70° E 03:34:54 10° NNE
Cosmos 1452 Rocket 3.9 03:28:22 41° WSW 03:29:39 51° WNW 03:34:46 10° N
Cosmos 1821 Rocket 4.1 03:27:30 39° SSW 03:29:54 67° W 03:36:17 10° N
ATLAS 5 CENTAUR R/B 3.9 03:25:06 10° NNW 03:30:38 37° NE 03:36:29 10° ESE
Cosmos 2278 Rocket 2.4 03:28:35 37° S 03:30:49 66° ESE 03:36:27 10° NNE
Resurs 1-4 Rocket 3.1 03:25:48 10° NNE 03:30:49 41° E 03:33:56 21° SSE
ARIANE 5 R/B 2.9 03:26:31 10° NNE 03:31:27 57° E 03:33:41 31° SSE
Meteor 2-21 Rocket 4.3 03:29:11 39° SSW 03:31:35 79° W 03:37:42 10° N
CENTAUR R/B 3.1 03:24:19 10° NNW 03:32:17 86° ENE 03:40:37 10° SSE
COSMOS 2406 3.5 03:27:41 10° NW 03:33:12 47° WSW 03:34:26 40° SW
Cosmos 1633 3.0 03:33:16 46° SE 03:33:56 54° E 03:37:29 10° NNE
Cosmos 1602 3.5 03:34:45 69° SW 03:35:06 77° W 03:38:58 10° N
Cosmos 2123 Rocket 4.0 03:28:57 10° N 03:35:20 84° E 03:39:36 22° S
Meteor 2-15 4.5 03:30:44 10° N 03:36:55 82° E 03:41:12 21° S
Cosmos 1420 Rocket 3.9 03:37:48 41° SSW 03:39:43 83° WNW 03:45:02 10° NNE
Cosmos 1315 Rocket 4.4 03:38:04 18° SE 03:40:21 31° E 03:43:56 10° NNE
COSMOS 2487 3.0 03:37:45 10° N 03:41:21 59° ENE 03:43:05 27° SE
Cosmos 1544 Rocket 3.9 03:42:24 31° SSE 03:44:23 62° E 03:48:44 10° NNE
USA 161 1.7 03:44:52 61° NNW 03:44:52 61° NNW 03:47:23 10° NNW
ADEOS 3.7 03:40:25 10° N 03:45:34 60° WNW 03:47:33 36° SW
Cosmos 2082 Rocket 4.2 03:46:20 10° N 03:51:15 29° ENE 03:56:09 10° ESE
Cosmos 1140 Rocket 3.3 03:52:16 10° NNW 03:57:23 71° WSW 04:01:08 18° S
Meteor 2-4 Rocket 3.6 03:55:29 10° N 04:00:53 88° E 04:05:40 13° S
Okean 2 3.8 03:56:52 10° N 04:00:57 63° E 04:04:24 14° SSE
Cosmos 1536 3.3 04:05:50 34° WSW 04:07:02 43° W 04:10:57 10° N
NOSS 2-2 (D) 4.5 04:07:16 24° W 04:09:08 37° NW 04:13:32 10° NNE
Cosmos 1892 Rocket 3.4 04:05:16 10° N 04:09:36 74° W 04:12:30 20° S
UNKNOWN OBJECT B 3.1 04:05:35 10° NNE 04:09:40 69° E 04:12:18 21° S
ERS-2 4.2 04:09:29 10° NNW 04:11:34 14° WNW 04:12:14 14° W
Cosmos 1850 Rocket 4.0 04:08:38 10° NNW 04:13:50 66° WSW 04:19:03 10° S
Cosmos 1741 Rocket 4.0 04:11:06 10° NNW 04:16:20 65° WSW 04:21:29 10° S
Cosmos 1459 Rocket 4.3 04:13:15 10° S 04:19:34 72° E 04:25:50 10° N
UNK 3.7 04:16:33 15° S 04:20:15 63° W 04:24:52 10° NNW
Cosmos 2100 Rocket 4.1 04:19:09 11° S 04:25:11 84° E 04:31:32 10° N
EO 1 Del DPAF 3.6 04:25:19 21° SSW 04:27:34 44° W 04:31:19 10° NNW
Cosmos 1461 4.2 04:24:58 19° WSW 04:27:42 34° NW 04:31:55 10° NNE
CZ-2D R/B 3.4 04:25:43 10° NNE 04:29:44 87° ESE 04:33:06 15° SSW
CZ-2D R/B 2.4 04:24:54 10° N 04:30:14 55° WNW 04:34:21 17° SW
Cosmos 1833 Rocket 3.8 04:27:56 10° N 04:33:23 48° ENE 04:38:47 10° SE
APEX 2.5 04:36:27 23° SSW 04:38:03 74° WNW 04:41:19 10° NNE
SME Rocket 3.3 04:35:21 14° SSW 04:38:14 40° W 04:42:02 10° NNW
IRS-1D 4.4 04:34:57 10° N 04:39:28 33° WNW 04:42:51 16° SW
MOZ.5/SAFIR/RUBIN 5/SL-8 4.5 04:35:29 10° SSE 04:40:10 58° ENE 04:44:52 10° N
Cosmos 1602 Rocket 3.6 04:35:57 10° N 04:40:18 82° E 04:44:39 10° S
MTI 4.3 04:40:50 15° SSW 04:43:19 40° W 04:46:28 10° NNW
BREEZE-M DEB (TANK) 3.0 04:40:48 16° SW 04:44:29 82° SE 04:47:56 10° NE
Okean O Rocket 1.5 04:42:40 10° N 04:47:02 81° WNW 04:51:22 10° SSW
Cosmos 1400 Rocket 4.4 04:46:56 14° WSW 04:48:51 19° WNW 04:51:45 10° NNW
Timation 2 Rocket 4.0 04:44:31 10° NNW 04:50:26 53° WSW 04:56:11 10° S
Cosmos 2061 Rocket 4.2 04:49:47 10° SSW 04:56:00 60° W 05:02:20 10° N
Cosmos 1455 Rocket 4.2 04:53:25 13° SW 04:56:33 27° WNW 05:00:22 10° NNW
Cosmos 1626 Rocket 3.6 04:53:47 10° NNW 04:58:06 61° W 05:02:26 10° S
Cosmos 2098 Rocket 4.0 04:58:02 10° SSE 05:01:15 41° E 05:05:12 10° NNE
Cosmos 2369 Rocket 4.3 04:57:41 10° SSE 05:02:04 23° ESE 05:06:28 10° NE
PSLV R/B 4.4 04:59:24 12° SW 05:02:12 32° SSE 05:05:14 10° E
USA 234 4.3 04:58:29 10° SSW 05:03:07 21° WSW 05:07:46 10° WNW
PAYLOAD B 4.3 04:59:30 10° N 05:05:05 73° WNW 05:10:39 10° SSW
Cosmos 1174 3.2 05:02:26 10° NW 05:05:53 62° WSW 05:08:53 10° SSE
Cosmos 1486 Rocket 4.2 05:01:16 10° NNW 05:06:38 80° ENE 05:11:57 10° SSE
SL-16 R/B 3.6 05:04:13 10° SSW 05:09:13 25° W 05:14:15 10° NW
ARIANE 5 R/B 4.3 05:07:11 10° NNW 05:10:05 16° WNW 05:12:58 10° W
Resurs 1-4 Rocket 3.5 05:06:17 10° NNW 05:10:21 23° WNW 05:14:25 10° WSW
CZ-2C R/B 4.2 05:09:51 10° S 05:14:21 44° W 05:18:56 10° NNW
Cosmos 2278 Rocket 4.0 05:11:39 10° W 05:15:24 18° NW 05:19:10 10° NNW
ATLAS 5 CENTAUR R/B 2.9 05:09:45 10° NW 05:15:24 40° WSW 05:21:20 10° S
CZ-4B DEB 4.4 05:12:04 10° N 05:17:36 65° WNW 05:23:05 10° SSW
DNEPR-1 R/B 4.2 05:13:29 10° NNW 05:18:59 74° ENE 05:23:30 10° SE
CENTAUR R/B 4.2 05:16:51 10° WNW 05:22:17 20° WSW 05:27:48 10° SSW
